sat.trackr.live / text

‹ back to catalog

QIANFAN-36

NORAD 61569 · 2024-185T

PAYLOAD ACTIVE UNKNOWN

§ Identity

Operator
Country
PRC
Launch date
2024-10-15
Launch site
TAISC
Launch vehicle
Mass (kg)
RCS (m²)

External: N2YO · Heavens-Above · Gunter

§ Orbital elements

Epoch: 2026-09-22T20:08:58.480800Z

Period
106.22 min
Inclination
88.9803°
Eccentricity
0.0004663
Mean motion
13.55647799 rev/d
Perigee alt
1,048.1 km
Apogee alt
1,055.0 km
Semi-major
7,429.7 km
B*
7.5125e-5
RAAN
51.4398°
Arg perigee
305.5150°
Mean anomaly
54.5568°
Rev number
10,641

§ Raw data

QIANFAN-361 61569U 24185T   26265.83956575  .00000064  00000+0  75125-4 0  99992 61569  88.9803  51.4398 0004663 305.5150  54.5568 13.55647799106414

JSON: /api/v1/satellites/61569 · /tle

For live sub-satellite position, see the globe view (requires WebGL).

§ Visibility from observer

Set your observer location to see the next 7 days of passes ≥ 10°. The values pass through the URL so the page stays shareable.

No JS? Fill the form by hand. The geolocation button needs JavaScript.